Flag for Germany Weather past 2 weeks in Recklinghausen, North Rhine-Westphalia, Germany

Now
42 °F

Overcast.


Feels Like: 35 °F
Forecast: 40 / 46 °F
Wind: 13 mph from West

Location: Duesseldorf

Current Time: Apr 1, 2015 at 5:48:46 AM

Latest Report: Apr 1, 2015 at 4:00 AM


Visibility: 31 mi

Pressure: 29.88 "Hg

Humidity: 61%

Dew point: 29 °F

Location of RecklinghausenLocation

Historic Weather in Recklinghausen — Graph

°F

Recklinghausen temperature yesterday

Maximum temperature yesterday: 52 °F (at 10:00 AM)
Minimum temperature yesterday: 40 °F (at 10:00 PM)
Average temperature yesterday: 48 °F

Past Weeks' High & Low Weather Summary

 TemperatureHumidityPressure
High65 °F (Mar 17, 3:00 PM)99% (Mar 20, 1:00 AM)30.39 "Hg (Mar 20, 1:00 AM)
Low31 °F (Mar 20, 3:00 AM)35% (Mar 17, 5:00 PM)29.26 "Hg (Mar 29, 8:00 PM)
Average45 °F78%29.97 "Hg
* Reported Mar 17 3:00 AM — Apr 1 4:00 AM, Recklinghausen, Weather by CustomWeather, © 2015

Note: Actual official high and low records may vary slightly from our data, if they occured in-between our weather recording intervals... More about our weather records

Advertising

Recklinghausen weather history for previous 24 hours

 ConditionsComfort  
Time TempWeatherWind HumidityBarometerVisibility
4:00 AM
Wed, Apr 1
42 °FOvercast.13 mph61%29.88 "Hg31 mi
3:00 AM42 °FPassing clouds.9 mph63%29.87 "Hg31 mi
2:00 AM42 °FSprinkles. Passing clouds.12 mph73%29.86 "Hg31 mi
1:00 AM41 °FPassing clouds.8 mph71%29.84 "Hg37 mi
12:00 AM40 °FPassing clouds.8 mph74%29.83 "Hg37 mi
10:00 PM
Tue, Mar 31
40 °FThunderstorms. Passing clouds.5 mph82%29.80 "Hg25 mi
9:00 PM43 °FThunderstorms. Overcast.8 mph76%29.80 "Hg19 mi
8:00 PM49 °FThunderstorms. Overcast.7 mph56%29.74 "Hg16 mi
7:00 PM49 °FSprinkles. Partly sunny.13 mph59%29.72 "Hg9 mi
6:00 PM47 °FSprinkles. Partly sunny.13 mph59%29.72 "Hg16 mi
5:00 PM52 °FScattered clouds.14 mph41%29.69 "Hg31 mi
4:00 PM50 °FSprinkles. Partly sunny.14 mph47%29.65 "Hg25 mi
3:00 PM51 °FPartly sunny.14 mph51%29.60 "Hg19 mi
2:00 PM52 °FSprinkles. Partly sunny.12 mph55%29.56 "Hg22 mi
1:00 PM52 °FSprinkles. Partly sunny.15 mph57%29.50 "Hg25 mi
12:00 PM51 °FSprinkles. Overcast.15 mph57%29.44 "Hg16 mi
10:00 AM52 °FPartly sunny.16 mph64%29.38 "Hg25 mi
9:00 AM51 °FSprinkles. Partly sunny.15 mph82%29.35 "Hg6 mi
8:00 AM50 °FLight rain. Low clouds.14 mph91%29.29 "Hg5 mi
7:00 AM51 °FLight rain. Low clouds.16 mph89%29.29 "Hg7 mi
6:00 AM51 °FLight rain. Low clouds.15 mph94%29.29 "Hg6 mi
Weather by CustomWeather, © 2015

See weather overviewHow to use our weather pages